GFSMW_con_3kmhel_117.txt.gz
Helicity
75 96 173 104 55 68 134 157 186 198 289 254 339 376 311 353 292 277 233 193 165 135 124 101 88 75 67 45 38 48 39 54 66 71 56 32 47 54 71 83 108 106 91
130 188 82 42 27 22 166 213 310 242 217 194 272 318 348 314 246 232 219 176 154 132 122 102 95 76 70 59 47 62 72 54 59 80 76 56 62 72 51 83 101 91 82
119 61 59 55 68 72 99 77 171 103 336 192 258 334 319 313 263 210 201 170 136 120 120 126 129 106 95 83 78 61 78 73 53 86 73 81 44 11 87 89 86 80 80
103 136 92 53 92 128 134 95 138 132 202 237 152 180 218 206 212 207 183 163 141 139 124 138 145 131 121 129 116 121 136 116 101 97 89 55 1 21 53 87 88 92 111
63 34 89 5 103 118 69 133 147 229 306 314 221 113 115 171 213 206 237 248 225 191 171 159 153 144 139 129 132 129 88 88 62 67 76 86 6 66 69 65 69 85 86
192 173 44 9 -4 -18 -27 79 79 384 241 381 344 76 75 154 173 246 264 258 254 212 183 170 158 159 170 163 177 134 134 115 74 90 81 82 83 16 98 87 73 72 75
185 119 22 -28 -37 31 30 -45 43 145 286 176 186 122 165 173 155 169 175 197 207 202 162 161 156 153 151 144 152 167 213 217 143 104 145 113 44 130 153 124 112 106 88
62 83 -15 21 24 44 12 -1 -17 80 170 85 164 152 183 181 201 188 179 163 155 125 73 87 113 133 132 144 162 193 208 232 207 37 62 62 123 225 214 167 153 114 105
111 63 51 43 55 6 85 72 18 -28 -96 113 116 165 101 146 103 144 133 123 111 101 84 96 100 139 207 255 179 166 186 191 68 75 109 105 143 179 177 158 132 144 136
144 133 109 62 20 6 16 72 88 83 72 90 77 18 57 50 88 69 73 72 98 81 73 98 97 152 142 126 170 205 190 149 115 86 106 160 166 184 152 151 159 150 143
51 89 132 93 55 22 1 42 30 102 94 72 19 24 -57 -33 17 -37 93 162 137 183 147 92 114 103 88 34 -24 -55 77 48 133 144 164 151 163 151 159 164 134 159 157
26 51 123 84 85 58 66 30 29 40 66 58 28 35 74 71 95 109 35 19 140 -93 131 135 142 86 55 54 8 99 177 200 230 180 182 164 170 165 146 136 137 146 154
78 72 75 94 51 69 94 111 116 83 74 108 130 157 100 86 74 54 56 87 152 104 146 99 80 135 186 179 163 152 170 155 180 196 182 180 170 146 132 152 156 162 164
77 92 100 101 103 94 89 98 118 129 146 140 112 113 108 103 93 82 112 109 123 128 118 126 140 135 154 163 162 171 193 201 208 198 193 167 135 135 142 152 151 153 157
108 83 96 101 99 92 87 73 69 81 113 136 182 87 47 52 90 81 75 92 115 121 126 133 132 143 159 174 194 217 242 229 238 234 227 198 176 170 164 160 155 147 144
98 108 94 96 105 90 84 73 69 63 59 91 108 129 119 125 69 46 100 58 87 115 128 130 144 173 188 173 188 203 211 214 223 206 184 156 164 168 166 170 160 156 144
81 105 110 83 71 91 84 77 70 66 59 56 73 90 71 47 -10 9 31 60 76 99 120 135 162 176 180 163 175 186 196 196 157 140 150 142 142 163 165 163 162 153 157
77 98 110 80 47 50 68 69 65 56 59 63 64 63 61 56 55 55 64 80 94 108 129 147 165 178 171 153 165 171 170 164 143 137 137 148 145 125 132 138 143 136 144
92 79 66 56 64 65 60 53 66 66 56 52 43 41 47 57 67 75 79 93 123 130 130 138 154 162 163 160 170 191 180 176 166 160 155 120 132 88 96 119 114 118 121
49 75 79 68 85 87 71 52 55 58 70 70 62 28 32 47 57 66 79 112 114 115 139 148 149 148 173 147 162 178 198 194 182 172 161 124 109 80 79 108 110 98 98
-49 32 79 74 63 67 77 77 56 56 57 52 50 52 39 55 75 98 130 138 140 151 153 162 168 169 166 154 138 156 188 193 199 186 168 139 81 75 66 80 95 86 113
-50 -53 -60 45 59 62 75 84 93 108 108 96 75 62 71 91 123 148 168 183 191 192 191 201 186 168 161 143 129 151 183 185 211 185 168 139 84 73 53 51 57 77 118
-90 -75 -55 -36 46 42 31 44 71 82 75 72 92 99 98 108 134 169 182 211 211 223 214 212 196 169 161 159 120 133 174 180 211 194 160 118 100 70 54 40 47 82 121
-92 -75 -79 -71 -57 44 29 16 25 30 35 53 68 75 49 65 89 118 140 162 180 183 186 180 162 167 173 170 173 177 188 183 212 185 176 155 128 100 82 69 62 118 131
-76 -70 -65 -63 -66 -48 21 5 17 29 41 54 65 59 53 51 84 103 110 121 138 158 162 151 159 194 182 159 191 193 194 198 175 198 209 175 153 122 100 85 78 119 140
-24 -34 -47 -61 -67 -50 4 21 39 54 65 66 55 49 38 62 73 99 105 112 121 96 100 84 113 129 112 148 142 144 137 145 167 251 213 173 148 123 99 73 72 113 111

GFSMW_con_3kmhel_123.txt.gz
Helicity
-20 38 135 118 175 162 151 110 185 196 422 418 493 355 350 280 300 252 266 219 181 157 154 154 167 145 95 55 66 83 75 80 80 98 94 88 90 98 90 105 94 95 85
-58 -17 4 103 91 139 -13 53 19 96 338 486 403 457 351 271 240 219 304 204 206 170 174 159 156 125 112 95 86 102 122 120 94 113 127 102 98 114 148 112 116 98 83
-44 -29 -125 24 90 86 65 80 85 56 162 299 532 439 312 309 325 256 335 232 198 177 188 165 156 137 133 100 95 110 133 151 145 113 129 136 95 120 127 136 111 93 92
63 53 -14 20 81 178 147 44 32 130 70 154 137 167 273 316 378 421 393 276 174 176 178 188 176 150 138 130 107 117 134 169 172 175 141 140 112 199 143 93 106 113 106
-15 12 -40 -9 45 93 94 51 83 66 105 47 108 170 177 292 325 302 272 239 217 170 157 172 184 167 145 125 124 122 129 168 192 194 209 185 151 129 84 85 135 85 104
-25 44 -10 60 90 88 141 243 81 88 69 90 138 170 207 268 270 280 314 216 181 166 154 177 187 159 152 132 118 136 145 161 194 198 202 195 152 108 91 128 182 153 172
56 86 138 49 74 105 144 64 59 113 41 81 167 248 290 286 270 295 383 340 269 167 154 183 197 170 139 147 164 162 168 170 170 180 140 123 138 131 143 237 326 354 355
435 226 207 80 23 56 100 37 102 99 61 57 155 238 359 327 291 265 245 243 201 174 127 161 172 178 171 199 190 191 180 170 183 107 124 143 136 190 207 207 331 385 285
333 347 121 141 59 83 59 1 115 132 72 128 123 194 306 329 255 252 255 272 282 252 189 197 210 207 214 210 205 210 176 185 173 158 170 171 173 193 179 228 327 233 324
149 180 109 81 76 92 66 39 23 15 64 86 211 344 547 354 251 282 230 214 196 149 158 181 193 196 180 188 183 233 231 191 146 163 187 203 206 218 270 279 283 204 155
127 124 135 137 124 77 36 17 37 22 5 43 147 127 137 165 268 295 268 233 158 139 104 128 155 176 161 161 189 203 171 196 107 181 183 190 236 298 321 273 203 154 131
39 84 126 167 167 150 110 79 16 45 5 -9 2 81 113 121 179 132 131 117 148 130 186 195 218 188 121 127 121 80 94 173 207 213 203 191 263 176 197 228 209 150 161
69 91 101 118 146 138 96 82 71 37 -1 -5 -8 4 54 39 51 72 88 72 82 99 101 123 157 143 161 151 157 99 132 158 137 155 172 147 182 192 208 158 156 153 162
86 93 104 127 102 69 75 64 74 75 32 4 14 -28 17 24 63 58 41 -30 37 70 114 105 76 71 151 161 131 152 119 137 119 197 206 169 140 119 183 167 143 158 172
86 95 99 128 139 144 136 107 81 72 54 62 48 12 -25 -10 20 21 45 72 74 93 90 125 128 147 139 165 200 168 188 182 264 221 204 187 259 222 172 188 155 168 175
54 72 82 87 103 111 113 102 93 70 54 87 97 58 40 23 27 37 32 54 53 69 78 113 85 82 132 193 151 134 140 143 148 190 212 211 206 158 152 156 162 161 157
40 61 73 75 79 90 83 85 69 47 64 71 76 81 76 57 45 32 40 27 61 69 62 76 64 58 44 38 67 102 148 175 192 221 236 249 240 238 220 198 212 155 149
27 45 47 58 67 69 60 39 41 46 54 67 64 59 55 54 54 50 36 18 26 69 93 127 107 50 44 42 71 119 150 174 189 205 217 210 194 150 186 244 196 170 153
-13 -17 -30 29 36 45 54 41 53 53 55 75 73 74 63 51 54 59 58 54 56 61 39 46 65 49 63 74 82 130 155 171 183 191 190 177 188 171 226 209 150 160 178
-43 -47 -40 -43 -58 -11 56 47 48 37 62 74 77 58 48 56 61 58 59 60 68 71 72 80 82 85 99 95 86 125 155 167 186 191 192 146 156 109 88 166 163 147 132
-40 -57 -61 -62 -70 -53 -69 -85 -72 -47 24 32 59 56 58 67 61 51 48 59 67 75 75 74 87 93 95 94 95 123 165 176 195 181 170 162 120 97 105 157 156 120 144
-32 -63 -67 -64 -44 -52 -70 -85 -89 -48 -45 -58 -70 -76 3 83 93 108 112 106 104 101 99 106 113 117 124 118 110 123 148 163 207 203 194 165 126 136 123 145 121 129 158
13 -46 -42 -45 -59 -60 -62 -69 -58 -53 -62 -50 -25 22 63 59 63 85 97 110 121 127 146 152 158 158 160 170 146 138 132 140 187 183 169 152 136 137 145 150 151 159 199
26 5 -20 -26 -20 -41 -42 -64 -78 -69 -40 -1 12 35 30 71 89 87 81 73 69 80 98 107 116 138 160 165 174 173 177 160 169 156 170 182 187 181 186 159 172 187 183
28 29 22 7 -14 -21 -29 -31 -55 -30 13 15 32 27 32 70 84 81 78 77 78 71 71 81 100 114 115 152 148 173 209 221 205 220 257 272 268 257 255 223 201 208 165
44 51 45 38 29 0 9 11 6 8 23 39 48 56 79 91 94 91 100 89 68 71 70 70 70 91 82 100 98 110 126 158 188 296 297 273 264 251 249 240 237 206 163

GFSMW_con_3kmhel_126.txt.gz
Helicity
-22 -50 109 156 123 126 185 164 153 109 100 207 328 397 367 372 320 356 274 305 259 271 235 237 215 183 166 137 118 141 105 89 94 126 117 101 86 81 80 79 98 106 99
-89 -65 -54 85 177 104 152 157 145 174 263 168 413 452 451 431 395 309 297 309 261 246 258 200 203 187 175 173 163 157 147 112 102 130 154 118 119 115 117 110 109 121 104
-74 -61 -59 66 75 78 103 137 163 165 204 209 191 584 561 406 432 320 290 231 231 241 302 211 189 191 183 176 147 141 142 163 135 125 145 150 113 155 134 118 128 121 131
-18 -33 -55 22 -30 21 137 68 162 182 229 107 314 422 620 587 378 343 341 294 232 227 288 260 197 200 165 178 141 162 163 185 166 156 132 135 117 148 134 107 61 84 127
20 -14 -37 -63 -92 32 60 99 152 167 155 117 65 118 342 349 414 310 304 291 300 270 243 292 207 185 173 137 155 158 140 162 174 202 201 188 163 156 142 115 55 46 66
119 -92 -140 -103 -15 51 51 131 91 166 132 133 51 28 143 521 328 337 322 280 273 270 230 239 173 143 175 148 135 152 154 145 161 199 188 208 216 166 184 178 103 118 106
392 211 284 118 45 102 105 119 172 178 116 30 7 122 87 135 208 212 259 326 230 251 207 259 198 176 167 162 160 161 159 171 175 182 189 215 207 166 128 131 114 154 267
349 194 216 231 108 181 176 89 120 173 119 86 160 88 97 149 164 200 221 276 185 186 225 241 241 128 149 170 170 180 179 212 196 190 196 203 150 157 146 137 145 151 200
368 291 195 187 139 158 130 72 91 131 327 122 63 126 146 182 195 196 210 244 250 261 218 192 231 305 168 147 175 172 187 187 178 178 188 192 185 169 157 198 254 260 231
153 160 201 230 181 141 114 152 175 75 131 69 123 145 263 279 312 282 268 270 264 185 136 136 62 118 133 152 176 168 198 188 212 214 217 223 219 173 223 214 233 280 267
119 171 189 186 166 157 142 84 5 -22 106 50 113 155 299 350 381 334 265 247 187 189 205 165 183 129 91 160 175 159 158 174 187 186 188 168 115 156 178 207 248 286 401
76 127 193 148 169 174 142 106 87 61 -8 -21 26 38 55 177 237 199 205 201 259 247 228 186 151 181 90 136 146 188 188 165 169 197 183 207 190 121 172 206 265 351 333
60 71 110 163 158 158 141 121 108 87 3 -30 -14 55 88 96 85 51 39 141 123 106 229 228 146 115 88 131 143 147 166 168 160 170 139 163 181 174 200 205 242 261 315
63 80 109 125 140 151 140 134 134 100 61 7 -30 -10 -20 -1 27 33 -3 63 44 65 52 124 132 106 116 146 142 137 148 110 164 111 132 120 152 163 242 223 178 225 205
66 78 94 108 119 150 153 152 122 102 89 76 55 27 33 27 31 25 45 80 43 42 69 69 82 81 72 68 88 141 141 137 176 112 146 116 157 162 221 241 239 201 167
59 73 65 79 89 102 113 105 110 109 76 94 92 63 38 22 34 30 36 56 87 94 62 66 100 112 159 199 144 148 132 132 140 117 117 214 193 188 172 246 340 162 200
25 50 61 56 50 58 36 49 64 64 73 69 74 76 54 34 22 25 31 39 47 49 60 63 78 78 73 84 78 84 172 280 201 198 163 174 172 189 208 203 265 171 178
31 27 31 31 38 37 39 14 10 13 18 35 50 51 51 44 42 39 44 42 25 27 36 72 101 109 121 81 37 35 49 62 76 97 111 129 132 164 222 220 262 261 210
-11 -21 -30 -22 23 34 31 19 31 29 40 61 61 60 50 50 46 47 43 40 49 51 49 40 42 55 66 78 43 37 71 88 84 100 132 147 156 142 167 225 228 228 228
-32 -39 -33 -39 -51 -37 -54 20 39 54 95 94 69 52 52 57 67 67 73 66 66 64 56 55 56 63 75 86 94 108 135 145 123 116 120 106 98 119 163 200 208 163 191
-22 -64 -62 -62 -54 -42 -54 -64 -54 -43 -27 -39 -56 -39 12 26 77 80 84 89 90 92 105 108 116 118 110 108 95 96 130 137 163 173 166 159 127 118 136 179 154 146 104
56 -15 -35 -52 -58 -54 -59 -53 -56 -10 -26 -58 -75 -1 48 34 38 70 77 80 94 95 106 114 136 137 135 139 140 115 123 133 178 189 203 206 161 144 135 151 114 84 147
103 51 40 24 -33 -40 -63 -70 -55 -50 -59 30 55 61 48 33 26 45 58 54 60 64 78 86 105 116 123 118 127 133 123 129 171 181 181 185 197 179 192 167 154 188 238
100 87 71 43 25 -2 -13 -23 -38 -45 9 34 50 67 73 78 80 90 81 88 77 73 68 70 71 95 107 116 121 135 154 136 154 159 168 211 217 195 219 186 183 235 204
92 103 103 104 63 37 48 48 37 28 34 57 61 88 93 80 85 92 88 101 97 80 79 88 93 98 105 118 99 114 145 162 173 198 218 234 273 276 262 255 236 249 226
63 70 90 119 103 78 63 62 71 89 60 67 87 99 99 108 107 104 106 112 98 113 105 100 97 103 81 76 96 99 82 88 113 219 260 255 263 262 272 269 265 275 237

GFSMW_con_3kmhel_129.txt.gz
Helicity
3 -5 15 79 156 188 164 113 99 126 191 200 215 157 280 323 384 313 339 319 331 249 240 233 188 180 194 185 184 201 148 151 123 139 121 99 85 70 71 78 83 85 91
38 33 -40 105 155 187 156 124 96 106 161 199 210 202 196 355 371 358 332 321 272 272 271 267 218 196 219 186 181 181 204 179 152 168 153 123 103 94 103 105 97 94 117
44 -57 73 55 119 162 176 123 90 90 123 172 223 211 196 256 326 317 355 332 266 259 269 282 259 235 214 211 206 181 174 213 175 157 178 159 119 139 126 112 108 99 94
60 -78 35 73 64 84 112 80 70 112 118 138 190 158 224 285 356 454 425 356 281 280 254 271 258 231 242 194 208 193 170 180 185 196 152 165 134 133 125 138 113 89 72
307 125 10 56 38 46 38 44 69 133 121 221 182 179 236 254 261 406 375 338 317 283 276 295 290 232 262 223 221 177 171 169 162 182 220 185 157 134 133 123 136 108 68
199 223 5 -34 -28 -25 -38 38 50 90 133 166 244 168 207 186 208 363 358 494 362 363 290 272 281 280 264 187 206 124 147 137 146 146 181 188 206 173 166 168 190 132 111
243 359 199 101 49 -9 -104 -47 -27 123 113 78 118 119 147 133 108 576 687 498 415 415 330 272 295 288 252 259 179 145 148 131 159 140 142 167 196 213 241 193 237 181 115
264 357 240 197 245 156 99 81 115 139 128 34 46 94 127 152 123 269 290 276 363 313 308 235 266 245 257 154 174 166 148 152 120 142 154 169 197 248 245 230 216 184 99
249 282 251 259 245 235 173 73 100 153 178 64 61 63 115 153 163 147 172 317 249 278 325 195 177 123 210 218 202 298 86 172 148 135 137 184 217 241 219 197 221 100 152
184 184 203 239 265 210 199 165 75 129 161 111 139 115 -20 71 120 179 176 186 241 248 265 237 211 258 235 262 353 393 181 117 135 148 166 198 202 226 201 226 203 231 201
182 203 206 169 201 185 203 148 136 148 141 101 134 173 190 159 134 141 161 213 220 191 171 179 233 231 245 213 169 119 110 82 118 148 144 168 188 209 191 224 194 171 194
222 144 156 161 147 155 219 216 190 179 146 103 167 151 208 250 252 301 337 232 203 186 153 155 119 122 125 110 132 209 180 149 89 94 126 161 183 220 198 185 169 134 228
69 106 152 176 165 160 152 182 162 146 98 49 102 65 122 109 94 87 186 194 142 129 131 138 177 170 186 145 163 108 105 135 174 119 134 171 168 146 150 154 231 197 298
50 87 121 140 124 127 144 159 137 128 124 92 79 80 85 99 102 116 67 86 79 77 70 61 102 160 188 155 165 153 90 115 136 193 184 151 142 99 112 211 198 193 217
60 75 101 121 93 104 121 120 121 112 71 51 57 82 47 38 58 78 114 114 113 93 57 70 78 76 112 145 142 118 118 110 142 175 135 162 150 189 156 203 200 244 250
48 60 68 87 94 101 101 86 76 73 54 44 49 42 33 33 45 33 26 39 69 71 71 78 72 87 90 143 155 86 22 107 110 123 154 202 184 72 93 97 172 249 341
26 49 59 64 68 81 77 80 70 49 51 55 55 54 34 30 26 21 32 37 36 40 70 72 66 57 35 57 95 118 108 153 221 183 140 102 125 161 190 197 243 263 299
40 22 27 42 51 48 51 49 58 55 53 57 64 64 51 46 40 47 58 58 50 52 48 48 49 56 58 77 86 105 115 110 74 72 82 86 82 71 123 150 207 241 268
-57 -52 -47 -20 29 46 43 27 36 47 83 104 92 72 53 47 47 60 63 63 62 68 76 69 73 75 78 87 71 78 100 96 81 67 86 113 115 138 131 137 122 159 212
-9 -44 -69 -75 -69 -54 -65 -62 56 57 64 53 45 47 59 73 79 71 66 56 53 49 59 67 75 84 88 100 107 101 102 99 100 102 97 92 127 137 178 200 194 165 175
28 -23 -41 -62 -69 -59 -70 -72 -58 -54 -31 -33 -37 -31 -18 -26 -37 -13 38 37 48 45 78 94 92 98 94 118 126 113 108 114 123 126 129 123 95 101 124 153 185 184 216
50 36 7 -16 -32 -46 -46 -58 -58 -39 -36 -44 -32 -11 -7 11 15 32 47 59 70 72 71 69 85 95 110 127 151 155 152 145 151 147 147 150 127 135 157 172 174 191 222
89 67 59 44 38 33 24 8 -15 -43 -35 12 42 54 47 47 47 63 84 86 92 99 106 103 105 112 119 120 125 143 159 153 165 181 167 143 144 123 154 174 180 225 313
126 96 68 50 35 42 53 49 48 64 60 71 74 68 78 83 80 66 70 80 89 97 98 97 99 99 103 107 119 137 144 146 154 165 178 162 157 186 215 233 228 334 337
111 122 111 73 44 43 53 74 88 81 78 84 73 72 72 73 71 69 61 69 67 74 84 88 98 116 117 121 111 115 130 139 136 148 200 209 211 213 254 298 270 291 299
99 86 69 60 46 55 54 65 76 78 78 78 75 74 70 74 75 77 85 73 71 92 92 101 120 120 105 107 115 127 122 105 103 152 190 184 197 211 224 241 270 294 243

GFSMW_con_3kmhel_132.txt.gz
Helicity
5 15 68 61 52 61 112 142 137 113 143 196 202 217 175 150 218 195 222 256 244 245 247 239 214 171 168 141 143 156 151 134 112 126 124 99 77 70 74 79 72 70 75
90 107 45 47 36 51 63 132 150 128 107 159 186 175 197 192 189 235 211 292 290 288 273 250 234 193 193 141 145 174 185 154 146 150 130 137 97 79 83 93 88 81 91
136 114 87 4 31 63 101 108 147 128 88 76 164 166 214 184 230 232 300 345 321 291 299 248 217 189 240 215 201 202 189 215 192 146 158 173 140 88 96 97 103 101 98
126 148 9 2 12 29 66 62 72 95 96 85 128 130 214 258 259 299 353 366 321 264 241 237 240 215 247 254 245 233 222 194 181 205 145 195 195 116 104 95 113 114 103
162 308 157 104 -2 19 33 45 51 62 84 95 105 151 166 186 246 247 239 291 297 266 274 271 267 248 246 259 250 264 231 226 174 200 181 152 152 140 122 82 96 122 131
304 304 117 95 83 -13 20 40 16 -13 30 99 107 112 159 144 200 193 260 299 317 316 291 289 239 275 216 248 227 248 246 244 180 159 180 142 160 142 142 116 96 82 119
199 213 121 133 204 115 2 -24 -9 37 44 27 69 95 114 119 162 202 194 227 307 307 302 316 302 284 255 230 251 284 176 215 193 152 164 114 110 112 108 131 119 135 178
229 182 235 237 216 249 72 -94 -20 8 -59 46 43 51 101 186 97 68 112 243 295 367 345 466 370 361 302 263 320 262 334 150 151 149 142 130 132 157 137 142 192 215 227
220 280 295 183 277 293 172 53 54 52 7 9 34 74 100 105 128 99 94 149 283 430 503 467 465 397 371 353 307 338 358 345 248 165 103 131 118 143 150 183 272 263 216
176 189 187 243 228 235 208 294 191 131 27 -50 -3 22 43 38 61 80 144 164 221 286 307 381 378 413 224 261 181 221 262 276 215 154 97 123 118 105 150 214 250 216 178
156 151 128 168 221 178 155 159 249 199 152 145 120 102 70 49 47 125 76 101 140 177 219 212 207 209 190 199 190 231 233 234 217 181 176 112 79 145 189 167 208 215 222
122 113 90 108 165 171 195 176 241 273 149 185 169 143 142 223 204 142 93 129 142 170 216 227 274 311 273 181 176 189 242 215 169 172 141 122 74 122 159 138 186 208 235
102 99 85 93 98 144 144 171 182 138 164 184 254 277 279 233 196 192 210 195 182 179 130 112 126 107 117 95 103 161 209 213 173 172 158 135 11 89 165 152 195 190 136
78 96 99 106 95 89 122 110 116 132 106 90 110 127 215 238 234 205 177 170 173 144 101 86 50 67 108 116 109 127 190 178 167 155 158 135 65 114 140 120 132 157 204
39 55 82 95 98 88 75 73 69 85 64 59 95 81 91 125 139 118 96 97 110 98 81 102 82 81 74 82 109 143 154 130 122 172 199 130 140 152 167 183 223 269 232
32 45 55 74 80 98 97 66 52 39 31 37 46 44 47 49 60 96 112 95 98 100 126 134 107 103 120 150 137 100 114 108 95 113 135 111 110 90 117 149 169 257 299
35 31 39 42 47 65 78 86 68 70 64 58 54 45 41 45 53 52 62 76 80 80 81 91 93 99 91 76 83 98 75 49 55 59 51 56 118 154 220 271 147 209 214
29 32 29 31 40 39 37 38 47 47 40 43 55 63 55 46 41 41 50 51 45 42 38 44 50 55 57 77 81 85 88 97 91 90 91 85 91 107 137 199 185 197 275
-40 -66 -68 -44 37 43 50 55 47 36 42 54 59 55 43 39 47 51 52 48 51 54 59 55 69 69 63 82 83 67 62 65 72 82 85 97 111 103 98 142 193 136 164
27 -14 -48 -65 -63 -66 -58 -70 60 69 77 82 73 58 60 67 67 57 53 53 50 43 42 66 73 82 99 100 109 113 100 98 97 90 98 108 119 126 112 154 167 186 166
69 34 8 -9 -32 -47 -48 -55 -59 -69 -47 6 43 54 54 47 41 58 61 69 78 77 78 82 83 90 102 114 128 142 135 135 136 133 132 133 128 124 134 158 198 195 218
79 74 52 23 -2 -15 -23 -37 -48 -45 -44 -46 -46 7 25 40 43 47 40 35 39 44 54 58 61 62 72 71 87 89 96 122 111 113 133 154 160 141 136 159 163 191 230
80 71 53 34 20 -1 -14 -10 -15 -31 -54 -32 40 47 43 42 46 50 49 42 54 62 68 72 75 87 91 92 94 98 119 121 131 125 124 129 131 136 142 130 148 162 281
90 102 85 63 43 29 15 2 21 40 45 58 66 67 67 65 65 59 54 47 48 51 47 52 56 61 74 98 111 113 117 122 131 154 156 149 142 135 137 154 167 235 303
87 86 78 68 55 68 63 64 60 58 55 61 68 72 75 74 65 61 59 56 60 75 68 73 80 90 102 106 114 126 134 144 145 153 149 162 176 171 182 191 199 235 254
109 105 83 65 49 62 71 75 77 74 72 72 71 74 72 63 65 67 65 75 66 76 86 102 110 96 88 92 103 123 135 131 136 186 203 195 176 180 165 175 187 220 219

GFSMW_con_3kmhel_135.txt.gz
Helicity
10 12 34 47 90 60 58 96 91 151 167 174 182 209 223 246 195 176 194 192 285 280 264 241 231 222 197 172 166 183 164 185 157 150 169 132 95 85 100 86 82 88 97
35 36 66 112 111 72 70 83 97 145 183 195 209 195 211 183 207 200 173 189 266 283 269 253 244 247 219 177 167 177 215 185 192 194 167 170 125 101 101 102 93 91 106
43 105 126 105 148 45 51 64 79 101 159 159 175 178 165 184 199 206 213 240 247 238 260 246 283 270 238 224 209 235 224 233 213 230 238 212 182 106 109 106 120 112 115
156 106 120 62 106 152 45 63 66 85 118 149 165 157 193 182 200 179 199 231 223 261 272 294 278 297 291 225 219 241 254 262 261 249 198 181 252 152 146 84 90 99 106
101 97 50 37 24 34 96 31 59 93 119 138 116 132 122 137 147 166 160 198 206 234 248 289 286 317 296 234 224 262 273 255 261 292 257 239 215 228 211 144 51 76 109
75 91 79 42 57 25 15 -1 16 24 100 97 92 94 86 103 138 186 202 225 231 291 265 273 283 337 336 301 281 262 293 281 245 219 229 259 256 197 202 156 151 57 65
99 136 115 38 97 93 180 2 37 -2 1 72 75 9 60 74 95 167 212 142 224 264 273 260 316 332 332 298 312 265 279 293 306 207 194 209 181 185 148 122 139 151 159
111 147 113 134 121 86 81 61 6 23 -34 34 70 65 94 117 108 111 177 129 190 204 224 310 297 270 302 318 318 315 298 296 300 312 306 205 163 172 141 173 169 174 146
100 157 187 181 123 129 123 151 91 -8 -27 -6 -2 55 80 115 102 76 90 169 175 199 221 244 283 293 354 394 421 409 367 306 264 267 323 279 151 157 147 157 181 146 125
97 77 110 121 136 78 156 227 288 41 22 -15 -76 -22 -78 67 45 11 63 91 154 166 172 211 257 332 327 382 409 431 398 357 358 332 340 324 368 207 154 102 102 148 161
92 69 69 62 105 133 137 194 366 211 3 -2 -46 25 90 134 79 63 54 107 144 157 178 266 318 311 420 558 428 374 487 494 519 280 267 293 265 230 142 139 112 181 201
63 52 37 70 121 117 143 133 376 488 296 124 119 137 121 87 99 77 86 59 62 105 154 147 166 216 273 263 210 169 119 110 192 223 223 183 150 88 85 89 120 164 181
36 45 39 36 57 54 70 102 155 299 242 285 233 233 198 160 141 106 81 83 85 129 121 119 184 175 197 157 122 144 159 134 153 198 203 192 198 143 148 114 129 154 164
34 40 32 30 23 22 30 29 65 105 156 131 266 310 318 244 224 241 254 229 178 186 148 130 170 149 119 120 105 99 101 102 128 172 186 193 171 179 223 194 118 108 181
28 33 33 28 28 27 25 26 27 32 27 28 122 212 140 175 214 201 219 228 200 219 193 169 160 110 126 92 75 71 77 84 128 141 127 120 133 147 153 159 173 174 162
17 33 30 26 26 35 31 35 36 29 17 16 7 2 74 151 117 173 129 111 117 117 134 124 121 114 108 132 143 119 92 85 97 93 90 70 86 81 73 115 79 164 177
37 34 32 36 35 32 32 34 34 31 25 23 22 23 32 25 37 45 66 80 72 64 75 88 83 89 102 109 93 78 79 94 95 99 104 102 98 109 107 112 103 115 125
50 47 42 36 41 45 43 37 36 33 34 35 33 24 24 29 31 41 59 64 41 41 44 51 56 43 58 73 66 66 64 74 63 60 65 68 73 78 85 90 98 113 117
9 -43 -58 -39 -30 55 53 47 49 44 41 49 52 58 58 49 50 57 64 62 65 71 69 60 64 60 58 72 85 83 64 62 58 66 68 74 77 89 94 113 122 111 118
80 33 -15 -40 -53 -66 -54 -52 -33 50 49 57 57 55 56 62 62 61 67 59 49 43 39 42 52 65 63 72 86 98 74 87 81 80 83 73 96 104 99 114 144 147 149
90 70 53 25 1 -30 -37 -35 -41 -63 -79 9 39 49 59 62 55 38 36 37 35 38 45 46 50 60 60 69 106 121 94 89 84 81 97 112 130 147 133 123 158 165 180
78 75 55 40 27 9 -4 -15 -27 -39 -51 -56 -49 -20 14 30 32 34 34 39 45 38 45 49 49 60 72 76 87 99 111 102 72 71 78 94 121 124 129 135 122 141 172
66 64 57 55 50 30 12 -7 -8 1 -11 -15 43 54 48 53 55 49 43 28 30 17 11 13 12 26 44 50 78 88 96 92 79 78 79 68 58 63 77 92 107 123 226
79 73 62 54 49 49 52 33 35 28 13 1 13 27 31 32 40 32 34 33 43 47 48 51 50 54 68 76 76 63 67 79 87 98 92 103 110 114 118 130 143 164 232
108 109 92 76 61 60 60 64 78 77 59 50 46 43 53 67 67 67 68 72 80 70 57 56 61 59 66 73 75 70 75 86 96 103 123 138 157 168 164 170 164 183 215
147 142 127 113 90 79 85 79 86 85 85 80 73 65 62 62 63 68 64 64 67 80 77 77 73 68 56 63 64 59 62 79 93 116 128 137 146 153 158 167 173 177 163

GFSMW_con_3kmhel_138.txt.gz
Helicity
-31 37 35 33 66 129 115 103 103 112 155 163 171 176 198 227 217 222 179 208 236 289 289 315 286 295 325 289 203 243 225 253 220 211 171 166 129 124 109 97 106 107 128
12 50 29 44 72 107 170 103 142 102 154 167 176 180 181 215 227 203 209 181 228 276 322 355 341 324 329 311 245 242 292 263 262 252 263 217 185 144 124 128 125 106 129
15 7 59 68 36 48 85 84 77 75 152 163 166 176 183 189 182 215 180 188 213 254 303 347 352 311 350 334 275 280 286 276 262 275 321 271 213 191 161 144 161 149 143
36 42 51 82 31 41 22 64 54 72 118 127 165 167 182 185 196 176 177 212 193 275 299 369 372 355 350 338 298 289 291 326 270 262 226 254 224 193 180 160 144 138 139
31 56 12 12 33 30 32 37 19 30 103 126 131 167 151 156 156 178 152 142 195 213 251 320 389 341 351 336 304 297 296 311 304 273 255 209 240 233 242 191 148 116 110
56 75 20 -19 43 21 14 96 38 21 64 97 107 141 152 143 147 140 135 167 177 131 303 361 274 293 318 327 335 326 332 343 276 275 246 233 309 303 263 225 202 137 97
30 55 60 43 70 48 5 63 79 26 57 58 66 116 131 135 125 124 128 123 175 126 88 238 281 317 338 266 285 340 332 363 324 349 372 269 254 350 273 228 173 160 151
18 49 55 67 18 1 25 42 16 -29 0 37 31 60 100 123 115 117 122 117 158 164 141 164 177 213 264 274 319 399 361 349 360 310 413 286 299 296 346 367 237 179 161
16 32 56 55 55 31 -12 37 60 39 10 49 16 55 104 98 105 117 146 146 138 190 188 170 202 245 281 324 278 326 314 344 357 267 289 358 298 348 321 339 439 191 188
14 14 9 30 65 34 2 48 191 137 4 13 -7 -27 71 93 95 107 111 118 130 179 211 207 210 258 276 255 301 296 329 337 354 383 386 408 456 447 401 367 339 359 143
24 23 13 48 24 26 36 36 181 167 167 89 -17 -49 -74 32 67 95 93 78 137 147 155 252 137 181 227 255 250 259 322 306 352 419 526 343 400 362 323 445 429 291 403
4 7 -3 -4 29 28 79 46 116 58 177 155 79 -53 -11 -61 -36 18 22 61 104 148 138 153 112 134 142 201 232 280 351 409 423 286 321 437 261 248 243 297 310 248 219
15 -7 4 -3 6 19 32 37 78 56 138 163 222 209 182 143 127 105 139 108 86 93 120 144 174 233 302 241 191 223 198 170 168 108 99 172 186 176 194 174 155 131 139
31 9 7 -3 -9 -4 4 5 20 8 45 90 260 172 218 196 210 106 116 113 130 103 107 129 151 157 191 157 178 210 174 137 137 144 96 84 124 134 153 177 172 180 178
41 31 18 14 9 8 6 4 12 4 -4 14 30 189 84 229 282 239 244 286 215 246 296 263 251 284 252 205 123 84 69 58 64 69 67 75 94 101 103 138 141 178 169
39 44 35 41 32 25 24 22 22 13 11 21 20 70 77 86 136 139 136 167 265 204 169 187 226 215 169 157 178 77 56 39 64 61 69 100 89 75 90 110 111 139 127
73 70 59 52 48 49 44 40 34 21 20 20 17 23 19 53 65 90 144 121 139 104 91 81 79 124 147 136 121 89 91 113 111 89 85 77 60 83 76 83 91 101 104
27 16 55 58 58 56 62 51 46 41 37 36 38 33 23 21 47 49 59 66 60 76 90 89 71 85 101 116 132 88 77 77 77 89 94 92 94 89 84 80 77 67 70
108 41 -2 -47 -67 -65 -47 -13 64 75 59 57 56 56 44 50 46 59 58 42 45 50 60 62 71 55 85 129 149 102 96 105 86 64 64 68 82 99 106 87 83 79 84
120 112 48 15 -10 -12 -20 -13 15 34 60 83 76 72 72 68 70 75 79 60 56 56 49 55 71 53 69 120 151 134 101 104 89 86 88 65 89 108 110 101 96 80 93
116 114 89 57 22 30 4 20 34 27 -8 1 60 74 90 100 96 86 81 83 69 81 83 68 72 61 42 66 114 150 94 78 73 79 95 101 141 133 114 97 82 84 105
106 109 80 60 66 84 53 29 35 25 6 -20 -46 -45 54 64 71 71 84 79 74 69 75 69 65 61 54 55 94 114 109 98 67 60 58 60 95 97 107 102 99 109 118
117 139 118 80 81 91 77 51 52 58 37 15 26 43 65 67 64 75 87 56 64 59 55 51 40 44 49 42 84 73 69 49 24 27 44 58 59 57 73 100 126 133 121
159 159 145 110 106 115 92 67 89 89 69 55 61 59 60 48 53 52 49 42 32 23 15 14 14 16 19 18 26 39 47 65 51 57 58 61 75 80 80 97 104 116 134
208 227 214 169 122 128 116 103 126 129 101 93 96 82 75 70 61 51 38 26 36 39 33 32 39 63 75 72 78 69 61 54 52 64 71 86 88 102 112 112 114 123 141
236 262 238 210 183 168 153 151 145 151 126 138 137 122 114 98 86 77 70 73 57 72 72 72 61 50 54 75 82 84 83 77 77 77 89 101 106 108 114 114 114 120 126

GFSMW_con_3kmhel_141.txt.gz
Helicity
-55 -31 -14 13 35 46 56 78 83 98 126 159 145 159 171 160 186 187 161 156 192 226 277 322 297 324 301 271 220 227 170 188 217 226 196 161 102 122 113 104 128 130 129
-14 25 28 41 47 48 71 74 55 97 100 179 178 206 197 167 148 173 169 172 160 185 269 305 313 328 326 281 305 251 301 265 268 253 246 185 185 138 130 130 113 106 137
2 17 23 42 39 51 70 91 70 47 105 151 180 230 240 202 190 174 177 180 167 178 223 282 308 355 372 365 360 312 274 267 303 285 294 268 218 222 189 126 135 128 140
9 11 29 57 32 24 28 40 38 39 47 72 128 161 201 173 195 170 179 173 135 170 191 238 293 372 417 401 398 361 326 315 310 358 298 270 205 199 187 182 156 163 140
-6 25 50 28 14 14 33 31 25 29 26 46 129 163 152 157 178 211 158 140 118 125 139 184 293 289 430 412 422 410 356 358 310 344 315 280 263 241 231 203 156 153 124
-11 -27 -21 9 38 19 -12 -24 -1 46 13 16 94 149 129 176 185 184 183 162 119 111 131 148 235 303 355 417 411 410 390 362 294 314 285 272 281 261 311 267 201 179 160
-23 -13 5 38 55 54 29 20 11 21 20 39 69 118 144 157 150 171 170 166 134 133 129 144 147 237 238 404 418 425 396 340 322 345 309 266 275 286 311 318 284 260 232
-14 -12 -15 -19 -3 13 -11 2 46 69 -1 0 36 88 92 99 110 135 161 153 140 127 125 129 153 128 169 365 392 415 361 317 276 306 330 347 294 244 308 257 310 326 298
-29 -21 0 -25 -30 5 -10 36 40 64 31 11 17 88 95 97 81 66 111 109 114 142 146 115 119 -7 191 91 229 307 315 230 282 330 338 326 241 281 323 340 362 302 339
-40 -23 -7 1 -18 -3 12 36 32 52 48 66 34 75 65 30 40 69 72 79 90 102 130 93 116 65 10 15 131 214 245 273 267 351 295 278 234 292 322 337 361 463 508
-29 -37 -30 -36 -32 -29 -1 -8 19 14 46 39 3 31 52 32 30 58 83 62 56 70 114 120 121 131 162 182 187 213 286 314 238 198 222 227 269 332 380 500 435 452 311
-16 20 -15 -26 -22 -18 -17 -19 -1 46 40 59 76 14 -5 -33 -16 44 53 86 91 106 86 97 132 139 144 163 195 169 208 143 221 228 262 254 294 392 521 351 212 226 228
10 20 12 3 -10 -10 -5 -1 -2 -6 62 116 88 119 139 129 147 -9 101 91 127 85 88 89 94 154 163 125 95 121 154 185 233 286 327 375 301 289 301 166 182 241 250
29 31 23 13 3 0 3 8 3 -5 23 66 49 103 137 159 62 113 120 89 102 22 9 70 149 102 123 171 201 260 226 154 157 110 109 161 123 117 148 176 115 108 136
30 36 28 34 26 25 22 23 10 10 -6 -4 65 74 49 78 236 201 194 184 145 191 263 271 285 244 212 185 174 191 201 191 152 90 137 132 124 75 84 97 97 106 108
40 43 48 57 46 39 36 32 31 26 12 6 11 20 49 54 106 127 236 166 318 206 215 285 358 348 354 324 294 220 195 250 276 242 120 133 141 129 126 113 127 120 116
80 31 64 51 48 48 46 47 39 39 39 33 31 21 5 52 43 70 55 78 66 67 246 99 118 192 211 183 164 148 249 302 205 167 157 150 138 138 126 105 95 88 115
148 134 46 -13 -35 -13 -3 -1 1 21 36 58 51 53 37 37 41 40 54 52 42 72 63 87 111 110 168 138 125 132 90 110 156 149 119 105 124 136 119 120 108 91 83
126 133 104 68 13 -18 -23 7 33 37 25 34 72 52 61 70 69 77 67 63 57 67 67 87 93 108 146 154 156 118 98 110 123 112 111 113 110 126 121 95 87 83 94
124 174 172 133 111 70 58 49 39 45 45 15 37 30 32 57 88 87 75 58 54 57 59 73 79 99 123 169 177 138 109 130 122 134 120 175 138 146 134 96 88 86 95
110 147 169 162 135 136 140 124 103 80 57 29 -22 43 41 64 56 76 87 79 91 99 94 83 84 84 85 116 155 151 126 115 112 110 106 98 141 143 144 130 101 84 87
130 156 165 133 124 143 156 155 138 124 102 82 62 13 25 59 68 68 57 62 64 59 55 50 54 53 54 77 98 110 108 104 96 101 100 97 116 119 122 112 121 114 98
141 161 160 134 124 135 140 134 110 144 152 154 130 109 116 115 100 84 72 68 71 61 66 61 52 49 55 80 126 131 126 118 90 90 96 101 95 81 55 52 60 74 77
142 167 192 165 131 139 133 110 127 125 140 145 154 160 162 152 140 137 123 111 103 99 95 91 84 75 75 76 67 60 54 50 33 23 5 2 14 24 23 33 59 68 71
169 185 197 180 149 151 127 123 140 157 142 138 143 156 159 161 154 147 126 119 103 91 78 64 57 48 35 40 54 58 54 49 44 49 36 39 38 51 69 92 104 109 110
169 202 213 184 177 190 161 138 141 159 158 165 162 163 169 158 146 134 132 115 95 96 85 82 71 73 78 87 86 86 80 73 68 57 58 72 74 81 94 116 126 120 139

GFSMW_con_3kmhel_147.txt.gz
Helicity
66 58 42 23 5 -4 8 20 20 46 32 31 34 57 74 105 116 119 121 162 164 160 162 192 186 165 288 334 308 292 266 247 233 278 189 148 118 105 94 95 103 90 90
66 48 38 17 -0 5 27 39 50 38 31 52 79 89 94 110 125 145 177 162 172 174 178 182 204 206 221 293 333 311 301 257 301 286 268 216 187 123 95 123 102 82 100
58 43 36 29 39 49 71 86 94 61 52 63 99 111 120 135 156 150 162 184 198 206 183 164 193 206 205 337 331 357 297 311 306 260 327 305 254 224 187 141 141 109 124
32 45 36 7 14 48 59 60 66 47 44 81 87 89 122 140 140 149 195 202 189 213 210 193 181 190 243 183 361 326 311 358 333 323 266 287 234 268 226 221 174 175 151
53 41 -1 8 -9 -4 2 20 -0 -9 20 55 64 80 91 85 101 134 176 171 181 182 199 201 195 199 224 252 174 364 382 348 338 351 362 322 341 286 244 200 195 247 165
40 2 -2 6 -8 -13 -22 -35 -45 -31 3 47 50 64 85 75 92 133 151 144 159 184 189 193 195 194 190 171 186 134 299 323 334 336 355 381 370 331 370 257 205 188 168
17 -2 -4 -4 -9 -7 -15 -37 -49 -39 -31 4 28 25 33 46 58 112 127 131 148 161 191 227 214 216 203 170 124 165 175 172 321 314 368 385 331 307 290 271 230 148 184
-21 -17 -3 5 -10 -22 -13 -17 -16 -23 -8 -12 6 46 48 74 94 119 151 131 141 163 162 169 172 201 206 194 185 149 193 170 298 235 254 288 323 337 417 318 274 242 221
-8 -14 -3 -6 -8 -14 -16 -21 -4 -24 -13 -3 -0 37 14 27 89 111 126 135 138 151 152 167 180 154 144 154 163 163 146 158 255 274 353 408 343 286 354 356 253 222 176
-4 -10 -12 -11 -7 -2 -8 -15 -14 -22 -28 -30 12 25 12 9 33 109 120 116 120 124 135 127 165 154 160 150 167 163 169 180 117 208 253 223 281 298 267 368 336 290 282
-7 -11 -7 -9 -13 9 7 -11 -15 -12 -17 -35 26 55 12 30 18 33 78 119 101 113 118 125 137 154 158 164 163 147 143 155 138 161 207 238 286 310 348 359 371 259 335
-9 -29 -13 11 12 21 24 11 4 -8 -18 -29 -17 12 -4 -6 7 -2 19 44 51 44 80 98 116 145 147 140 148 156 144 171 171 159 238 224 299 291 236 310 324 321 234
71 52 34 24 21 27 34 34 29 28 13 -2 8 -3 -5 -1 7 21 54 4 36 -16 -5 46 88 104 108 94 87 122 137 137 170 162 133 108 201 322 229 215 238 262 248
65 75 61 65 63 58 51 44 45 42 36 29 15 -2 -21 -37 -31 20 18 42 40 -37 -30 83 95 52 43 41 71 102 140 144 148 134 129 144 132 186 177 253 193 179 211
99 132 130 47 71 83 83 66 61 57 49 40 39 26 -5 -17 -10 -22 8 43 79 123 30 74 120 24 74 54 37 53 100 153 116 128 157 177 201 237 228 251 215 204 211
90 86 128 126 96 43 77 88 76 24 69 63 54 40 35 -2 -16 -36 -58 16 59 167 214 170 162 147 138 121 73 100 173 167 238 325 332 294 221 221 247 197 234 268 225
95 108 134 148 140 106 50 17 54 83 74 76 68 55 51 36 8 -1 29 21 6 -30 54 162 153 181 222 313 274 347 333 362 375 317 372 369 325 407 365 416 341 421 314
91 108 122 113 119 122 112 85 80 80 74 69 72 66 60 49 30 27 29 44 38 48 6 45 86 237 314 192 416 561 452 489 375 377 373 399 437 249 242 276 288 261 224
79 95 106 123 121 109 96 100 96 85 68 56 50 40 11 -10 51 56 65 62 68 86 69 39 38 78 97 105 99 119 178 249 255 234 198 176 199 221 170 158 169 184 185
48 64 79 109 130 107 107 105 92 81 59 64 51 31 11 25 57 58 54 50 71 80 85 105 96 90 71 52 63 55 44 103 145 132 141 175 174 175 137 128 127 155 125
43 41 75 104 115 132 153 112 94 96 64 64 52 41 34 37 47 50 59 70 86 98 105 129 133 131 120 125 131 109 89 77 92 105 125 136 147 144 147 148 148 140 125
62 69 85 89 88 139 167 119 110 91 91 95 80 56 42 47 58 66 60 53 45 56 60 64 83 98 107 112 135 136 136 122 112 112 116 135 149 133 127 118 116 111 132
83 95 139 109 100 129 178 145 87 121 113 112 96 83 73 68 69 70 63 57 48 37 33 37 48 63 72 93 132 135 131 127 103 93 114 126 138 141 153 156 151 131 109
97 140 142 137 116 158 157 124 150 146 155 127 109 109 106 88 81 81 73 72 60 46 36 39 42 41 56 73 84 93 99 118 116 119 127 125 124 128 113 106 116 102 108
81 143 141 146 140 188 174 149 136 189 185 147 124 115 115 126 125 110 88 78 73 63 57 47 45 57 70 68 75 74 75 68 69 68 85 107 120 135 136 129 133 129 124
83 125 141 135 128 183 173 171 193 193 192 181 174 152 139 133 136 150 161 131 87 83 76 69 68 71 65 66 74 84 95 99 101 113 130 127 124 118 106 106 105 102 113

GFSMW_con_3kmhel_150.txt.gz
Helicity
81 67 65 69 64 43 28 17 15 35 48 61 58 54 70 81 88 110 99 122 160 168 164 182 184 198 237 206 262 291 287 306 264 322 237 178 163 146 133 122 123 106 98
71 74 68 66 42 29 24 29 41 66 81 78 61 55 61 73 79 96 125 133 132 159 184 187 188 185 220 236 212 286 297 281 351 318 322 225 189 166 129 141 136 114 123
77 73 70 51 32 26 29 40 60 83 89 55 18 32 61 54 55 94 145 169 161 153 169 181 214 196 208 234 226 231 265 354 370 314 413 348 298 235 216 182 182 159 168
82 63 40 26 17 11 6 8 27 41 42 -5 23 34 68 82 85 103 153 189 199 185 178 187 204 208 219 207 244 235 208 244 328 358 322 371 305 277 246 235 238 224 203
16 19 22 28 17 20 14 -0 -6 18 24 11 21 58 78 91 100 138 139 160 171 166 174 184 194 221 232 210 206 242 248 227 265 359 443 367 390 354 302 190 207 270 221
17 37 31 8 10 24 21 16 10 15 1 1 -6 28 74 106 120 116 104 116 125 139 151 158 169 204 208 219 246 260 234 217 172 243 295 341 434 417 385 331 199 206 171
34 29 6 11 22 23 13 3 -9 3 -8 -28 5 2 24 43 78 64 84 86 118 124 118 143 155 193 184 177 190 207 226 239 184 112 292 349 329 289 282 268 306 246 166
20 7 -2 14 15 14 4 -4 -9 -7 -14 -28 -23 14 12 41 42 80 98 106 146 148 126 134 137 165 172 165 175 192 185 185 174 147 79 128 287 276 297 278 271 289 269
18 6 -11 -6 17 41 26 14 8 -0 6 4 -12 -2 29 35 30 21 54 116 136 148 128 121 125 137 154 179 146 173 192 162 156 164 115 152 198 187 295 238 190 136 117
-12 -32 -45 -37 -19 29 27 21 23 26 13 3 -5 -3 13 -10 22 60 24 60 114 130 123 124 116 115 133 161 193 172 149 130 150 137 139 173 223 214 275 237 322 277 209
-3 -36 -57 -47 10 18 28 22 24 12 4 1 -3 -20 6 -5 10 46 31 30 112 88 104 100 103 110 119 149 174 183 159 132 116 106 138 135 161 217 349 287 300 309 306
74 49 42 36 3 23 39 41 37 26 21 18 18 17 -4 -0 -8 -11 -1 38 75 67 55 85 60 71 109 121 140 155 164 162 129 109 114 110 141 172 160 201 282 309 273
72 73 65 -24 42 36 54 59 48 40 29 21 19 20 9 2 19 14 -20 -10 -2 50 78 82 46 40 81 110 135 136 125 124 119 117 113 147 173 152 209 215 245 267 233
78 106 100 91 22 25 55 61 52 49 44 44 22 3 21 22 8 -24 3 13 19 45 79 62 32 38 52 98 109 113 120 112 102 128 139 139 157 124 137 156 227 240 283
74 89 102 100 96 79 36 36 59 63 64 20 40 41 39 26 23 -7 -46 -36 -22 50 73 136 102 64 52 61 113 2 45 50 71 107 121 121 136 114 84 139 177 207 199
83 87 90 78 96 118 99 24 1 22 63 58 60 58 48 37 32 18 -4 -12 -31 31 -0 76 145 88 74 68 -89 -12 59 44 72 115 257 151 120 138 195 223 255 146 183
45 118 101 97 96 105 139 112 58 49 43 49 59 58 47 30 28 27 15 8 7 -8 23 30 57 94 74 159 161 49 224 255 279 226 319 257 291 259 415 386 292 338 353
-6 26 70 76 82 101 117 125 121 90 58 43 40 49 48 22 -8 13 44 42 30 14 -7 51 70 91 183 232 344 394 404 454 453 349 326 362 360 309 314 333 402 353 325
-5 5 40 59 77 99 107 128 125 105 78 50 42 44 41 20 26 41 49 64 62 60 68 53 46 58 100 133 133 150 310 466 531 397 283 318 312 281 226 268 246 245 276
39 -2 24 54 61 82 134 154 125 122 99 74 53 60 56 40 33 49 61 56 69 78 74 95 93 94 66 87 107 49 2 47 104 136 186 157 182 169 177 181 191 228 153
40 58 49 56 83 81 134 155 135 120 88 85 82 65 63 63 59 57 57 63 68 63 63 58 64 81 95 107 118 91 54 50 66 85 112 114 133 148 144 136 140 127 128
37 64 78 65 90 114 147 147 159 114 103 109 98 99 83 78 84 83 70 62 60 58 41 33 31 43 65 83 96 111 93 81 84 99 105 122 134 162 156 140 136 143 138
63 101 59 50 69 110 161 161 151 164 151 134 111 94 111 101 92 104 101 88 71 59 46 37 24 25 36 49 81 84 87 89 74 76 115 136 135 143 150 161 162 151 123
64 92 97 68 52 96 150 158 183 198 192 173 135 125 121 127 127 109 104 109 96 75 46 27 22 26 41 44 47 53 57 68 70 84 93 105 114 117 103 111 111 101 98
33 79 94 94 91 85 144 131 198 254 220 200 183 164 148 135 139 140 125 100 82 80 71 51 42 38 37 40 52 55 56 48 50 63 71 81 96 104 100 96 90 84 90
34 78 130 120 113 141 144 147 181 222 245 224 217 215 193 172 167 172 182 146 109 86 73 78 83 80 80 76 76 75 66 62 57 88 86 89 90 91 88 92 97 108 131

GFSMW_con_3kmhel_153.txt.gz
Helicity
79 73 69 68 71 61 56 42 40 37 26 33 46 62 72 79 82 76 82 90 113 118 139 165 165 184 208 234 216 252 240 232 260 283 183 193 144 141 131 127 107 93 94
54 66 67 72 63 63 55 49 38 39 44 44 55 54 40 53 70 77 69 81 92 106 123 133 145 148 184 197 227 256 238 242 253 257 272 244 199 187 154 155 142 107 115
46 61 65 56 69 67 43 39 43 47 38 17 23 18 -9 14 25 66 81 59 83 115 136 148 163 161 163 180 203 245 253 278 252 227 315 282 215 227 171 182 187 154 175
-4 46 74 83 56 33 35 27 24 20 23 19 15 -5 17 48 79 81 111 114 104 135 157 162 167 179 203 194 197 213 241 261 265 291 264 253 241 257 220 169 207 221 209
-30 -27 47 35 39 29 20 24 22 19 25 23 8 12 27 62 81 105 110 135 156 161 174 171 161 171 197 187 210 213 227 238 239 313 235 222 373 230 415 210 100 189 201
4 29 34 22 12 14 22 25 28 31 23 14 3 4 18 30 63 86 127 124 128 139 127 119 132 145 177 181 202 214 205 222 222 214 242 254 291 359 226 242 228 215 169
-1 -2 20 27 27 24 27 26 21 21 8 1 -13 -24 -20 -7 17 42 89 100 98 98 87 94 116 134 147 151 159 193 213 228 226 208 233 185 178 246 263 210 193 218 217
-11 -10 -13 -26 -30 -17 5 13 14 10 1 -12 -16 -20 -40 4 20 31 39 58 93 106 100 127 126 115 116 133 141 171 192 210 242 197 184 206 208 127 276 237 148 229 152
-14 -16 -27 -30 -41 -36 -22 -11 -10 2 -0 2 2 -25 -33 -25 -28 -19 31 65 67 81 93 124 131 138 132 121 125 131 153 151 169 202 194 187 174 182 131 133 198 209 192
-5 -11 -24 -34 -35 -25 -26 10 13 17 16 8 -6 -8 -8 -9 -6 3 12 28 58 73 71 104 111 108 126 116 105 104 85 107 164 146 152 170 189 168 186 161 170 206 210
60 43 23 17 40 7 5 -15 45 29 22 19 17 13 6 -4 -5 6 -9 9 28 44 79 107 85 85 89 97 98 87 91 87 99 129 148 146 140 167 161 206 193 220 256
82 77 77 65 -19 -52 -27 10 48 55 47 39 33 22 18 19 24 24 28 6 16 -0 1 74 61 63 62 74 74 65 81 89 104 124 138 130 140 137 150 175 196 226 204
63 50 52 103 99 38 7 14 61 68 60 50 45 30 24 28 32 30 21 3 -53 -13 5 35 73 83 85 58 64 60 68 82 87 111 123 109 102 112 133 150 137 157 165
103 89 79 76 79 83 89 82 39 49 73 70 56 39 30 40 43 27 24 11 -8 -6 -8 28 52 52 64 55 27 38 66 74 100 126 78 90 102 106 113 136 131 132 148
48 65 67 55 74 68 84 116 104 38 34 76 76 71 74 54 37 27 37 31 5 -17 -32 -3 37 63 119 97 30 10 46 117 89 100 107 104 98 105 101 144 147 133 164
41 32 28 19 30 54 67 95 112 117 71 48 72 85 80 65 39 17 15 35 37 20 9 25 17 36 62 114 -74 -12 -5 28 -35 23 21 38 84 107 101 124 127 114 98
30 29 30 27 32 36 57 88 98 126 113 80 61 62 73 70 50 26 10 22 51 37 24 13 14 49 79 122 116 107 35 77 150 128 93 97 109 155 143 137 175 177 264
43 45 48 28 36 53 47 76 111 122 115 90 73 73 70 79 68 45 41 47 57 59 44 40 31 17 42 104 152 209 242 287 277 224 215 219 223 298 252 437 399 283 337
78 61 51 66 49 47 56 71 105 126 118 93 84 73 79 74 78 76 62 70 72 77 68 43 55 40 46 46 111 204 194 192 326 373 392 214 208 311 363 505 525 321 462
76 42 48 55 61 78 53 99 105 134 128 99 89 100 84 81 86 80 91 87 88 90 73 64 48 55 46 53 45 18 61 258 205 231 192 223 132 157 183 133 169 258 300
16 50 87 53 55 103 137 106 112 136 119 117 105 111 110 88 89 102 89 96 98 98 90 66 51 50 59 52 39 17 -18 -33 8 67 116 83 114 114 119 112 94 76 98
50 55 102 78 64 88 149 155 142 125 140 123 127 116 116 117 111 108 119 98 97 91 78 64 49 41 52 71 76 61 40 11 21 36 54 80 103 96 103 114 117 128 121
83 70 88 80 73 91 112 132 122 169 135 152 134 136 135 131 135 127 118 129 100 96 83 70 54 41 39 45 79 80 75 80 76 69 73 89 104 123 152 151 134 123 123
74 84 68 86 63 63 108 103 100 136 149 136 157 154 171 154 144 143 137 122 116 101 95 79 70 62 56 55 59 68 75 95 100 106 112 116 128 128 107 120 133 120 105
89 101 90 95 83 63 92 92 101 179 152 171 182 203 195 188 171 150 144 123 102 111 99 86 79 66 58 58 59 64 71 84 93 103 102 115 115 124 129 135 128 122 125
78 86 84 90 103 86 77 82 110 147 173 195 205 220 250 220 209 199 184 132 118 97 100 96 96 80 77 78 87 95 87 79 75 96 92 102 103 107 103 103 107 113 124

GFSMW_con_3kmhel_156.txt.gz
Helicity
39 46 55 56 58 56 53 53 48 33 27 24 20 27 37 64 68 75 88 94 99 105 122 143 149 157 174 171 173 185 234 228 188 237 216 185 183 157 183 120 128 120 115
32 33 33 49 56 58 52 46 39 40 32 33 46 54 69 74 69 63 59 76 99 106 119 127 138 146 163 153 166 174 213 213 234 226 238 245 207 216 208 171 137 137 133
-6 51 28 36 49 55 59 53 42 38 37 39 38 25 30 31 31 33 46 73 88 106 116 125 145 152 160 170 161 186 194 223 220 185 275 309 292 177 145 147 203 145 177
-32 -22 34 35 42 49 48 39 39 43 31 25 15 9 23 23 14 20 38 74 93 104 112 140 148 154 175 166 176 185 201 217 230 255 272 182 241 231 194 143 124 185 194
-33 -66 -45 1 18 20 17 13 26 18 13 7 5 7 9 9 35 49 36 64 106 112 118 130 143 165 189 174 159 173 193 231 256 274 291 268 217 215 205 240 164 137 145
-7 -35 -47 -24 -11 -9 -2 4 -2 -2 10 9 10 9 15 13 18 40 56 74 81 92 92 99 113 131 143 150 159 148 159 205 223 262 273 290 291 322 270 335 231 211 149
17 4 -12 -31 -40 -6 4 6 6 9 24 26 21 17 12 11 12 8 38 52 58 68 56 66 84 96 93 103 118 121 138 172 199 216 263 274 278 269 226 191 172 175 135
5 -3 -17 -28 -44 -47 -44 -5 16 29 32 33 23 10 7 5 -0 -1 12 33 40 41 47 69 83 96 95 107 111 131 120 129 167 161 198 225 253 239 267 214 181 149 129
-18 -22 -24 -22 -30 -39 -43 -44 -40 -18 2 15 12 7 7 3 1 1 3 7 14 40 49 60 84 89 109 114 132 133 116 114 123 136 105 124 163 195 202 179 253 196 156
10 9 3 -3 -2 -18 -31 -23 -25 -3 44 40 42 40 21 4 -12 2 -8 11 8 29 42 53 74 94 91 95 113 118 121 97 92 75 72 96 120 132 158 169 159 203 189
40 34 46 62 66 9 -26 -40 -31 -5 36 54 58 49 35 14 23 39 37 19 9 1 10 41 36 78 79 68 104 113 106 94 83 56 46 74 99 138 157 148 159 170 172
23 26 34 54 78 91 73 61 28 31 58 73 66 54 49 47 55 67 45 30 25 9 -3 38 58 62 68 47 67 68 79 77 85 81 55 54 109 107 121 135 133 170 177
23 7 15 40 58 55 74 93 108 96 80 82 81 67 52 55 63 73 67 66 51 36 20 40 68 64 36 77 74 71 63 50 67 72 81 76 102 113 143 136 117 127 143
30 8 1 -2 6 29 49 55 71 109 141 144 60 68 71 71 70 82 86 79 72 68 47 12 27 50 59 56 107 64 48 32 44 58 78 92 114 101 108 140 107 96 108
84 40 18 22 17 8 11 30 46 64 122 144 126 70 82 80 83 79 66 65 62 57 57 46 35 15 6 46 55 69 50 44 16 44 95 121 134 103 91 102 87 96 107
87 49 -0 11 24 20 30 32 30 42 81 109 103 93 94 92 79 81 77 58 56 66 72 70 48 42 29 41 84 80 32 23 18 34 100 106 121 56 61 107 90 80 93
48 22 -11 -14 8 17 32 41 41 58 75 84 80 75 77 88 95 83 77 67 57 65 72 77 59 47 22 54 15 97 104 132 104 85 65 52 113 118 30 29 47 174 171
24 23 -5 -10 8 21 28 42 61 63 78 75 75 78 78 73 85 94 85 72 69 66 80 79 76 56 33 51 38 52 105 142 119 89 109 94 84 84 75 190 326 389 293
32 27 4 20 26 36 36 53 69 86 93 70 82 78 81 78 76 76 94 95 75 80 81 85 74 68 69 50 63 4 61 153 209 206 166 143 133 136 205 254 331 342 317
28 20 12 29 38 26 71 68 64 89 96 111 110 95 89 88 83 78 84 106 100 83 82 73 70 66 64 69 53 40 7 88 104 197 232 227 188 246 284 202 298 388 365
-1 9 26 38 36 44 84 79 60 69 88 112 143 130 109 97 90 99 99 100 107 95 80 71 68 68 65 65 50 38 26 11 64 97 126 112 115 109 82 81 118 101 160
50 42 39 41 39 51 74 72 65 72 63 107 103 159 132 127 117 105 118 102 104 104 87 76 65 64 71 75 81 82 68 55 54 60 53 80 127 118 108 79 70 81 50
43 31 33 34 39 54 49 65 50 42 59 63 83 130 152 133 122 118 115 133 108 104 104 88 73 60 58 72 96 98 93 93 85 77 73 86 125 138 153 145 137 125 124
36 14 4 7 24 24 39 34 55 67 68 76 74 104 147 164 139 143 130 123 127 112 108 110 93 81 60 56 60 70 82 95 97 100 114 126 125 130 122 133 148 141 129
56 36 28 32 31 23 36 32 41 53 61 72 114 104 147 155 173 149 149 135 107 117 111 104 110 93 76 65 64 58 62 72 80 84 83 94 102 110 112 115 115 106 98
52 51 52 35 17 20 30 29 29 35 39 50 81 127 152 223 164 173 163 158 165 112 132 129 112 125 108 90 72 78 89 89 81 98 107 117 121 125 121 120 118 119 121